Station SDRT2 - 8773037 - Seadrift, TX Image indicating link to RSS feed of recent meteorological observations for station SDRT2


Conditions at SDRT2 as of
(1:48 am CDT)
0648 GMT on 04/23/2024:
     

Click on the graph icon in the table below to see a time series plot of the last five days of that observation.

5-day plot - Wind Direction Wind Direction (WDIR):ENE ( 60 deg true )
5-day plot - Wind Speed Wind Speed (WSPD): 4.1 kts
5-day plot - Wind Gust Wind Gust (GST): 4.1 kts
5-day plot - Atmospheric Pressure Atmospheric Pressure (PRES):30.07 in
5-day plot - Air Temperature Air Temperature (ATMP): 62.2 °F
5-day plot - Water Temperature Water Temperature (WTMP): 71.8 °F
5-day plot - Wind Speed at 10 Meters Wind Speed at 10 meters (WSPD10M): 3.9 kts
5-day plot - Wind Speed at 20 Meters Wind Speed at 20 meters (WSPD20M): 3.9 kts
5-day plot -  Wind Speed, Wind Gust and Atmospheric Pressure Combined plot of Wind Speed, Gust, and Air Pressure
Previous observations
TIME
(CDT)
5-day plot - Wind Direction
WDIR
 
5-day plot - Wind Speed
WSPD
kts
5-day plot - Wind Gust
GST
kts
5-day plot - Wave Height
WVHT
ft
5-day plot - Dominant Wave Period
DPD
sec
5-day plot - Average Wave Period
APD
sec
5-day plot - Mean Wave Direction
MWD
 
5-day plot - Atmospheric Pressure
PRES
in
5-day plot - Pressure Tendency
PTDY
in
5-day plot - Air Temperature
ATMP
°F
5-day plot - Water Temperature
WTMP
°F
5-day plot - Dew Point
DEWP
°F
5-day plot - Salinity
SAL
psu
5-day plot - Visibility
VIS
nmi
5-day plot - Tide (above MLLW)
TIDE
ft
2024-04-23 01:42 amENE 2.9 4.1----30.07- 62.4 71.8----
2024-04-23 01:36 amENE 2.9 4.1----30.08- 62.4 71.8----
2024-04-23 01:30 amENE 2.9 2.9----30.08- 62.4 71.8----
2024-04-23 01:24 am E 1.9 4.1----30.08- 62.6 71.8----
2024-04-23 01:18 amENE 2.9 4.1----30.08- 62.4 72.0----
2024-04-23 01:12 amENE 2.9 2.9----30.09- 62.6 72.0----
2024-04-23 01:06 amENE 2.9 4.1----30.09- 62.6 72.0----
2024-04-23 01:00 amENE 2.9 4.1----30.09-0.02 62.6 72.0----
2024-04-23 12:54 amENE 2.9 4.1----30.09- 62.8 72.1----
2024-04-23 12:48 amENE 1.9 2.9----30.09- 62.8 72.3----
2024-04-23 12:42 amENE 1.9 4.1----30.10- 62.8 72.3----
2024-04-23 12:36 amENE 1.9 4.1----30.10- 62.6 72.5----
2024-04-23 12:30 am E 2.9 2.9----30.10- 62.6 72.5----
2024-04-23 12:24 am E 2.9 4.1----30.10- 62.4 72.5----
2024-04-23 12:18 amENE 2.9 4.1----30.10- 62.4 72.5----
2024-04-23 12:12 amENE 4.1 5.1----30.10- 62.2 72.7----
2024-04-23 12:06 amENE 4.1 4.1----30.10- 62.4 72.5----
2024-04-23 12:00 am E 2.9 4.1----30.11+0.00 62.4 72.5----
2024-04-22 11:54 pm E 2.9 4.1----30.11- 62.8 72.7----
2024-04-22 11:48 pm E 2.9 4.1----30.11- 62.6 72.5----
2024-04-22 11:42 pm E 2.9 4.1----30.11- 62.6 72.5----
2024-04-22 11:36 pm E 2.9 4.1----30.11- 62.8 72.5----
2024-04-22 11:30 pm E 2.9 4.1----30.11- 63.0 72.7----
2024-04-22 11:24 pm E 2.9 4.1----30.11- 62.8 72.7----
2024-04-22 11:18 pm E 2.9 5.1----30.11- 63.0 72.9----
2024-04-22 11:12 pm E 2.9 4.1----30.11- 62.6 72.9----
2024-04-22 11:06 pm E 2.9 4.1----30.11- 62.6 72.9----
2024-04-22 11:00 pm E 2.9 4.1----30.11+0.01 62.4 72.9----
2024-04-22 10:54 pm E 2.9 4.1----30.11- 62.4 72.9----
2024-04-22 10:48 pm E 2.9 4.1----30.11- 62.2 72.9----
2024-04-22 10:42 pm E 1.9 4.1----30.11- 62.2 72.9----
2024-04-22 10:36 pm E 1.9 2.9----30.11- 62.4 72.9----
2024-04-22 10:30 pm E 2.9 4.1----30.11- 62.4 72.9----
2024-04-22 10:24 pm E 2.9 5.1----30.11- 62.4 72.9----
2024-04-22 10:18 pmENE 4.1 5.1----30.11- 62.4 73.0----
2024-04-22 10:12 pmENE 2.9 4.1----30.11- 62.4 73.0----
2024-04-22 10:06 pmENE 2.9 4.1----30.11- 62.6 73.0----
2024-04-22 10:00 pmENE 2.9 4.1----30.11+0.00 62.8 73.0----
2024-04-22 09:54 pmENE 4.1 5.1----30.11- 62.8 73.0----
2024-04-22 09:48 pmENE 2.9 5.1----30.11- 63.0 73.0----
2024-04-22 09:42 pm E 2.9 5.1----30.11- 63.3 73.2----
2024-04-22 09:36 pm E 5.1 6.0----30.11- 63.3 73.2----
2024-04-22 09:30 pm E 4.1 6.0----30.11- 63.1 73.2----
2024-04-22 09:24 pm E 2.9 5.1----30.11- 63.1 73.2----
2024-04-22 09:18 pm E 2.9 4.1----30.11- 63.0 73.2----
2024-04-22 09:12 pm E 2.9 4.1----30.11- 63.1 73.2----
2024-04-22 09:06 pm E 2.9 5.1----30.11- 63.1 73.2----
2024-04-22 09:00 pmENE 2.9 4.1----30.11-0.01 63.1 73.2----
2024-04-22 08:54 pmENE 2.9 4.1----30.11- 63.1 73.2----
2024-04-22 08:48 pm E 2.9 5.1----30.11- 63.5 73.2----
2024-04-22 08:42 pm E 2.9 5.1----30.11- 63.5 73.2----
2024-04-22 08:36 pmENE 2.9 5.1----30.11- 63.7 73.4----
2024-04-22 08:30 pmENE 4.1 5.1----30.11- 63.7 73.4----
2024-04-22 08:24 pmENE 2.9 5.1----30.11- 63.7 73.4----
2024-04-22 08:18 pmENE 2.9 5.1----30.11-- 73.4----
2024-04-22 08:12 pmENE 4.1 5.1----30.11-- 73.4----
2024-04-22 08:06 pmENE 4.1 5.1----30.11-- 73.4----
2024-04-22 08:00 pmENE 4.1 6.0----30.11-0.03 64.0 73.4----
2024-04-22 07:54 pm E 4.1 6.0----30.11- 64.2 73.4----
2024-04-22 07:48 pm E 5.1 6.0----30.10-- 73.6----
2024-04-22 07:42 pm E 4.1 5.1----30.11-- 73.6----
2024-04-22 07:36 pm E 4.1 6.0----30.11-- 73.6----
2024-04-22 07:30 pmENE 4.1 6.0----30.11- 65.1 73.6----
2024-04-22 07:24 pm E 4.1 6.0----30.11- 65.3 73.6----
2024-04-22 07:18 pm--------- 65.3 73.6----
2024-04-22 07:12 pm--------- 65.3 73.6----
2024-04-22 07:06 pm--------- 65.5 73.8----
2024-04-22 07:00 pm E 5.1 8.0----30.11-0.03 65.7 73.8----
2024-04-22 06:54 pm E 6.0 8.9----30.11- 66.0 73.8----
2024-04-22 06:48 pm E 6.0 12.0----30.11- 66.2 73.8----
2024-04-22 06:42 pm E 6.0 11.1----30.11- 66.2 73.8----
2024-04-22 06:36 pm E 7.0 8.9----30.11- 65.7 73.8----
2024-04-22 06:30 pm E 6.0 9.9----30.11- 65.8 73.8----
2024-04-22 06:24 pm E 5.1 8.9----30.11- 65.7 73.9----
2024-04-22 06:18 pm E 7.0 9.9----30.11- 65.7 73.9----
2024-04-22 06:12 pm E 8.0 9.9----30.11- 65.8 73.9----
2024-04-22 06:06 pm E 6.0 9.9----30.12- 66.0 73.9----
2024-04-22 06:00 pm E 6.0 8.9----30.12-0.04 65.8 73.9----
2024-04-22 05:54 pm E 5.1 8.9----30.12- 66.2 74.1----
2024-04-22 05:48 pm E 7.0 9.9----30.12- 66.0 74.1----
2024-04-22 05:42 pm E 6.0 9.9----30.12- 65.7 74.1----
2024-04-22 05:36 pm E 6.0 8.9----30.13- 65.5 74.1----
2024-04-22 05:30 pmENE 6.0 8.9----30.13- 65.3 73.9----
2024-04-22 05:24 pm E 6.0 9.9----30.13- 65.1 73.9----
2024-04-22 05:18 pm E 7.0 9.9----30.13- 65.3 74.1----
2024-04-22 05:12 pm E 8.0 11.1----30.14- 65.5 73.9----
2024-04-22 05:06 pm E 8.9 11.1----30.14- 65.8 74.1----
2024-04-22 05:00 pm E 7.0 12.0----30.14-0.04 66.6 74.1----
2024-04-22 04:54 pm E 8.9 12.0----30.13- 67.5 74.1----
2024-04-22 04:48 pm E 9.9 12.0----30.13- 67.6 74.1----
2024-04-22 04:42 pm E 8.0 9.9----30.13- 68.0 74.1----
2024-04-22 04:36 pm E 8.9 12.0----30.13- 68.2 74.1----
2024-04-22 04:30 pm E 8.9 12.0----30.14- 68.4 74.1----
2024-04-22 04:24 pm E 8.9 14.0----30.14- 68.4 74.1----
2024-04-22 04:18 pmESE 11.1 15.0----30.14- 68.4 74.1----
2024-04-22 04:12 pm E 9.9 13.0----30.14- 68.7 74.1----
2024-04-22 04:06 pmESE 9.9 14.0----30.14- 68.9 74.1----
2024-04-22 04:00 pm E 12.0 14.0----30.14-0.05 68.9 74.1----
2024-04-22 03:54 pm E 8.0 15.9----30.14- 69.4 74.1----
2024-04-22 03:48 pmESE 8.9 13.0----30.14- 69.3 74.1----
2024-04-22 03:42 pm E 9.9 13.0----30.14- 69.8 74.1----
2024-04-22 03:36 pm E 9.9 14.0----30.14- 69.6 74.1----
2024-04-22 03:30 pmESE 11.1 14.0----30.15- 69.4 74.1----
2024-04-22 03:24 pm E 9.9 14.0----30.15- 69.1 74.1----
2024-04-22 03:18 pmESE 8.9 13.0----30.16- 69.3 74.1----
2024-04-22 03:12 pm E 9.9 13.0----30.16- 69.8 74.1----
2024-04-22 03:06 pm E 8.9 12.0----30.16- 69.8 74.1----
2024-04-22 03:00 pm E 8.9 13.0----30.16-0.04 69.6 74.1----
2024-04-22 02:54 pm E 9.9 13.0----30.16- 69.1 73.9----
2024-04-22 02:48 pm E 8.9 14.0----30.17- 69.1 74.1----
2024-04-22 02:42 pm E 8.0 14.0----30.17- 69.3 74.1----
2024-04-22 02:36 pm E 9.9 14.0----30.17- 69.1 74.3----
2024-04-22 02:30 pm E 8.9 12.0----30.18- 69.1 74.3----
2024-04-22 02:24 pm E 8.0 11.1----30.18- 69.3 74.3----
2024-04-22 02:18 pm E 11.1 14.0----30.18- 69.3 74.3----
2024-04-22 02:12 pm E 8.9 14.0----30.18- 69.4 74.3----
2024-04-22 02:06 pmENE 8.9 15.0----30.18- 69.6 74.3----
2024-04-22 02:00 pm E 11.1 15.0----30.18-0.04 69.4 74.3----
2024-04-22 01:54 pm E 9.9 14.0----30.18- 69.4 74.3----
2024-04-22 01:48 pm E 12.0 14.0----30.19- 69.4 74.1----
2024-04-22 01:42 pm E 12.0 15.9----30.19- 69.6 74.1----
2024-04-22 01:36 pm E 8.9 15.9----30.19- 70.0 74.1----
2024-04-22 01:30 pm E 9.9 14.0----30.19- 70.0 74.1----
2024-04-22 01:24 pm E 8.9 14.0----30.19- 69.8 74.1----
2024-04-22 01:18 pm E 7.0 14.0----30.19- 70.3 74.1----
2024-04-22 01:12 pm E 8.0 14.0----30.19- 70.2 74.1----
2024-04-22 01:06 pmENE 11.1 14.0----30.19- 70.0 74.1----
2024-04-22 01:00 pmENE 7.0 11.1----30.19-0.02 70.2 74.1----
2024-04-22 12:54 pm NE 8.9 13.0----30.19- 70.2 74.1----
2024-04-22 12:48 pmENE 9.9 15.0----30.18- 70.5 73.9----
2024-04-22 12:42 pmENE 8.9 17.1----30.18- 70.9 73.9----
2024-04-22 12:36 pmENE 8.9 15.0----30.18- 70.5 73.9----
2024-04-22 12:30 pm E 12.0 18.1----30.18- 70.7 73.4----
2024-04-22 12:24 pmENE 9.9 18.1----30.19- 70.3 73.2----
2024-04-22 12:18 pmENE 12.0 20.0----30.19- 69.8 73.2----
2024-04-22 12:12 pm NE 9.9 15.0----30.19- 70.0 73.2----
2024-04-22 12:06 pmENE 9.9 17.1----30.20- 70.5 73.2----
2024-04-22 12:00 pm E 12.0 17.1----30.20-0.03 69.4 73.0----
2024-04-22 11:54 am E 9.9 14.0----30.20- 69.4 72.9----
2024-04-22 11:48 amENE 9.9 14.0----30.21- 69.8 72.9----
2024-04-22 11:42 am E 8.9 14.0----30.21- 69.3 72.7----
2024-04-22 11:36 am NE 7.0 17.1----30.21- 69.4 72.5----
2024-04-22 11:30 am NE 9.9 13.0----30.21- 69.1 72.5----
2024-04-22 11:24 am E 9.9 17.1----30.21- 68.7 72.5----
2024-04-22 11:18 am E 8.9 11.1----30.21- 68.9 72.5----
2024-04-22 11:12 am NE 8.9 14.0----30.22- 67.8 72.3----
2024-04-22 11:06 amENE 8.9 17.1----30.22- 68.5 72.3----
2024-04-22 11:00 amENE 9.9 13.0----30.22+0.02 68.2 72.3----
2024-04-22 10:54 am NE 8.9 14.0----30.23- 68.0 72.3----
2024-04-22 10:48 am NE 8.9 12.0----30.23- 68.2 72.3----
2024-04-22 10:42 am NE 8.9 14.0----30.22- 67.6 72.1----
2024-04-22 10:36 am NE 8.0 15.0----30.22- 67.6 72.3----
2024-04-22 10:30 am NE 11.1 17.1----30.22- 67.6 72.1----
2024-04-22 10:24 am NE 9.9 15.0----30.22- 67.1 72.1----
2024-04-22 10:18 am NE 6.0 11.1----30.22- 67.6 72.1----
2024-04-22 10:12 am NE 4.1 12.0----30.22- 67.1 72.1----
2024-04-22 10:06 amNNE 7.0 13.0----30.22- 66.2 72.1----
2024-04-22 10:00 amNNE 7.0 13.0----30.22+0.04 65.8 72.1----
2024-04-22 09:54 amNNE 8.0 12.0----30.21- 65.7 72.1----
2024-04-22 09:48 am NE 8.9 15.0----30.22- 65.5 72.1----
2024-04-22 09:42 amNNE 7.0 14.0----30.21- 65.5 72.1----
2024-04-22 09:36 amNNE 8.0 15.0----30.21- 65.1 72.3----
2024-04-22 09:30 am NE 9.9 15.0----30.22- 64.8 72.1----
2024-04-22 09:24 amNNE 8.0 13.0----30.21- 64.9 72.1----
2024-04-22 09:18 amNNE 11.1 15.0----30.22- 64.8 72.0----
2024-04-22 09:12 am N 8.9 12.0----30.22- 64.4 72.0----
2024-04-22 09:06 amNNE 8.9 15.9----30.22- 63.5 72.1----
2024-04-22 09:00 amNNE 8.9 13.0----30.23+0.05 63.1 72.1----
2024-04-22 08:54 am N 8.9 11.1----30.23- 63.0 72.1----
2024-04-22 08:48 amNNE 8.0 11.1----30.22- 62.4 72.1----
2024-04-22 08:42 amNNE 7.0 9.9----30.22- 62.1 72.1----
2024-04-22 08:36 am N 5.1 8.0----30.22- 61.3 72.1----
2024-04-22 08:30 am N 5.1 7.0----30.22- 61.0 72.1----
2024-04-22 08:24 am N 4.1 8.0----30.22- 60.3 71.8----
2024-04-22 08:18 am N 4.1 7.0----30.22- 59.4 72.0----
2024-04-22 08:12 am N 5.1 7.0----30.21- 58.8 72.0----
2024-04-22 08:06 am N 5.1 7.0----30.21- 58.5 72.0----
2024-04-22 08:00 am N 5.1 8.0----30.20+0.03 57.9 71.6----
2024-04-22 07:54 am N 5.1 7.0----30.20- 57.4 71.6----
2024-04-22 07:48 am N 5.1 7.0----30.20- 57.2 71.6----
2024-04-22 07:42 am N 5.1 7.0----30.20- 56.7 71.6----
2024-04-22 07:36 am N 5.1 8.0----30.20- 56.3 71.6----
2024-04-22 07:30 am N 5.1 7.0----30.19- 56.1 71.6----
2024-04-22 07:24 am N 5.1 8.0----30.19- 55.9 71.8----
2024-04-22 07:18 am N 5.1 8.0----30.18- 55.9 71.8----
2024-04-22 07:12 am N 5.1 8.9----30.18- 55.8 71.8----
2024-04-22 07:06 am N 6.0 8.0----30.18- 55.6 71.8----
2024-04-22 07:00 am N 6.0 8.9----30.18+0.02 55.4 71.8----
2024-04-22 06:54 am N 6.0 8.9----30.18- 55.2 71.8----
2024-04-22 06:48 am N 5.1 8.0----30.18- 55.2 71.8----
2024-04-22 06:42 am N 5.1 8.0----30.18- 55.0 71.8----
2024-04-22 06:36 am N 5.1 8.0----30.18- 55.0 71.8----
2024-04-22 06:30 am N 5.1 7.0----30.18- 55.0 71.8----
2024-04-22 06:24 am N 4.1 7.0----30.18- 54.9 71.8----
2024-04-22 06:18 am N 6.0 8.0----30.18- 54.9 71.8----
2024-04-22 06:12 am N 4.1 7.0----30.18- 55.0 71.8----
2024-04-22 06:06 am N 5.1 7.0----30.18- 55.0 72.0----
2024-04-22 06:00 am N 5.1 8.0----30.18+0.00 55.0 72.0----
2024-04-22 05:54 am N 6.0 8.0----30.18- 55.0 72.0----
2024-04-22 05:48 am N 6.0 8.0----30.17- 54.9 72.0----
2024-04-22 05:42 am N 6.0 8.0----30.17- 54.9 72.1----
2024-04-22 05:36 am N 6.0 8.0----30.18- 54.9 72.1----
2024-04-22 05:30 am N 6.0 8.0----30.18- 54.9 72.1----
2024-04-22 05:24 am N 6.0 8.9----30.18- 55.0 72.1----
2024-04-22 05:18 am N 6.0 8.9----30.17- 54.9 72.1----
2024-04-22 05:12 am N 6.0 8.9----30.18- 54.9 72.3----
2024-04-22 05:06 amNNW 5.1 8.0----30.18- 54.9 72.3----
2024-04-22 05:00 amNNW 5.1 8.0----30.18-0.01 54.9 72.3----
2024-04-22 04:54 am N 5.1 7.0----30.17- 54.7 72.3----
2024-04-22 04:48 amNNW 5.1 7.0----30.18- 54.7 72.5----
2024-04-22 04:42 am N 5.1 8.0----30.17- 54.5 72.5----
2024-04-22 04:36 am N 5.1 7.0----30.17- 54.5 72.5----
2024-04-22 04:30 amNNW 5.1 6.0----30.17- 54.5 72.5----
2024-04-22 04:24 amNNW 5.1 5.1----30.18- 54.9 72.7----
2024-04-22 04:18 amNNW 4.1 6.0----30.17- 55.0 72.7----
2024-04-22 04:12 amNNW 4.1 6.0----30.17- 55.0 72.7----
2024-04-22 04:06 am N 4.1 6.0----30.16- 54.9 72.7----
2024-04-22 04:00 am N 5.1 8.0----30.16-0.03 54.9 72.7----
2024-04-22 03:54 am N 5.1 8.0----30.16- 54.9 72.9----
2024-04-22 03:48 amNNW 5.1 7.0----30.16- 55.0 72.9----
2024-04-22 03:42 amNNW 5.1 6.0----30.17- 55.4 72.9----
2024-04-22 03:36 amNNW 4.1 6.0----30.17- 55.4 72.9----
2024-04-22 03:30 amNNW 4.1 6.0----30.17- 55.4 73.0----
2024-04-22 03:24 amNNW 4.1 6.0----30.17- 55.2 73.0----
2024-04-22 03:18 am N 4.1 5.1----30.17- 55.4 73.2----
2024-04-22 03:12 am N 4.1 6.0----30.17- 55.6 73.0----
2024-04-22 03:06 am N 4.1 6.0----30.17- 55.6 73.2----
2024-04-22 03:00 am N 6.0 6.0----30.17-0.02 55.8 73.4----
2024-04-22 02:54 am N 5.1 7.0----30.17- 55.9 73.4----
2024-04-22 02:48 am N 5.1 6.0----30.17- 56.3 73.6----
2024-04-22 02:42 am N 5.1 7.0----30.18- 56.3 73.6----
2024-04-22 02:36 amNNW 5.1 7.0----30.18- 56.5 73.8----
2024-04-22 02:30 amNNW 4.1 5.1----30.18- 56.7 73.8----
2024-04-22 02:24 amNNW 4.1 6.0----30.19- 56.5 73.6----
2024-04-22 02:18 amNNW 5.1 6.0----30.19- 56.7 73.6----
2024-04-22 02:12 amNNW 4.1 5.1----30.19- 56.5 73.6----
2024-04-22 02:06 am NW 2.9 5.1----30.19- 56.8 73.6----
2024-04-22 02:00 amNNW 2.9 5.1----30.19-0.01 57.0 73.2----
2024-04-22 01:54 am NW 2.9 5.1----30.19- 57.4 73.4----